Wind_Speed
30 30 30 30 29 30 31 31 33 30 29 27 31 34 34 34 33 34 35 36 37 38 40 41 42 44 45 47 48 50 52 54 55 57 59 60 62 63 65 66 67 68 69 71
30 30 32 31 29 29 30 31 32 32 29 29 33 34 34 34 35 35 36 37 38 40 41 43 44 45 47 48 50 52 54 56 57 59 60 62 63 65 66 67 68 70 71 72
30 30 33 32 28 29 31 31 32 32 30 31 33 34 34 35 36 37 37 38 40 41 43 44 46 47 48 50 52 54 56 57 59 60 62 63 65 66 67 68 70 72 73 74
33 33 35 30 29 30 31 31 32 32 32 32 34 34 35 35 37 38 39 40 41 43 44 46 47 49 50 52 54 56 57 59 60 62 63 65 66 68 69 70 72 73 74 76
35 35 35 31 30 31 32 32 31 33 33 34 34 35 35 37 38 39 41 42 43 44 46 47 49 50 52 54 55 57 59 60 62 64 65 67 68 69 71 72 73 75 76 77
35 36 36 30 30 32 35 34 32 34 35 35 36 36 37 38 40 41 42 43 44 46 47 49 50 52 53 55 56 58 60 62 64 65 67 68 69 71 73 74 76 77 77 78
35 37 36 32 32 34 35 35 35 35 36 36 37 38 39 40 41 42 43 45 46 48 49 50 52 53 54 56 58 60 61 63 65 66 68 70 71 73 75 76 77 78 78 78
36 37 35 34 35 36 36 36 37 37 37 38 39 40 41 42 43 44 45 46 48 49 50 52 53 54 56 58 60 61 63 65 66 68 70 72 74 75 77 78 79 79 78 77
37 36 35 36 37 37 38 38 38 38 39 39 40 41 42 43 45 46 47 48 49 50 51 52 54 56 58 60 61 63 64 66 68 69 71 74 76 77 78 80 80 79 78 77
36 35 36 37 38 39 39 39 40 40 41 41 42 43 44 45 47 48 48 49 50 51 52 54 56 58 60 61 63 65 66 68 69 71 74 76 78 79 80 80 80 79 77 76
37 36 37 38 38 39 39 40 41 42 43 44 45 45 46 47 48 48 49 50 51 52 54 56 58 60 61 63 65 67 68 70 72 74 77 78 79 80 80 79 79 78 76 73
37 37 38 37 38 40 41 41 42 43 45 45 46 47 47 48 48 49 50 51 53 54 56 58 59 61 63 66 68 69 71 73 75 77 78 79 80 79 78 78 77 74 72 69
37 37 38 38 39 40 41 42 43 44 45 46 47 47 48 48 49 50 51 53 55 56 58 59 61 63 66 68 70 72 74 76 77 79 80 80 80 79 77 74 71 68 66 64
37 38 39 39 40 41 42 43 44 45 46 46 47 47 48 49 50 51 53 55 56 57 59 61 63 65 68 70 72 74 76 78 79 80 80 80 79 78 76 72 66 61 60 60
37 38 40 40 41 42 43 44 45 45 45 46 47 48 49 50 51 53 54 56 57 59 61 63 65 68 70 72 74 76 78 80 80 80 79 79 78 75 72 67 63 60 57 56
38 39 40 41 41 42 43 44 44 44 45 46 47 48 50 51 53 54 56 57 59 60 63 65 68 70 73 75 77 79 80 80 80 79 78 77 74 71 66 62 60 59 57 54
38 39 40 40 41 42 42 43 44 45 46 47 48 49 51 52 54 55 57 59 61 63 65 68 71 73 75 77 79 80 80 80 79 78 76 73 70 65 62 60 59 56 54 51
38 39 40 40 41 41 42 43 44 45 46 47 49 50 52 53 55 57 59 61 63 65 68 71 73 75 77 79 81 81 80 79 77 75 72 68 65 62 60 58 56 54 51 48
38 39 39 40 41 42 42 43 44 46 47 49 50 52 53 55 57 59 61 64 66 68 71 74 76 78 79 81 81 80 78 76 73 70 67 64 61 59 57 55 53 51 48 44
39 39 39 40 41 42 43 44 46 48 49 50 52 54 56 58 60 62 64 67 69 72 74 76 78 79 80 81 80 78 75 72 69 66 63 60 58 56 54 52 50 46 43 40
38 39 40 41 42 43 45 46 48 49 51 52 54 56 58 60 63 65 67 69 72 75 77 78 80 80 80 79 77 74 71 68 65 62 59 57 55 52 50 48 45 42 39 37
39 40 41 42 43 45 46 48 49 51 52 54 57 59 61 63 65 68 70 73 75 77 78 80 80 80 79 76 72 69 66 64 61 58 56 53 51 48 46 43 41 38 37 36
40 41 42 44 45 46 48 49 51 53 55 57 59 61 64 66 68 71 72 75 77 78 79 79 78 77 74 71 67 65 62 59 57 54 51 49 47 44 42 40 38 36 35 34
42 43 44 46 47 48 50 52 53 55 57 60 62 65 67 69 71 73 76 77 78 79 78 76 75 72 69 66 63 60 58 55 53 49 47 45 43 41 40 38 36 34 33 32
44 45 47 48 49 50 52 54 56 58 60 62 65 67 70 72 74 75 76 77 77 76 74 72 69 67 64 61 58 55 53 51 48 45 43 41 40 39 37 35 34 33 32 31
46 47 48 50 51 53 55 57 58 60 63 65 67 69 71 73 75 76 76 75 74 72 69 67 65 61 58 55 53 51 48 46 43 42 41 40 38 37 35 33 33 32 31 30
48 49 51 52 54 56 58 59 61 63 66 68 69 71 72 73 74 74 73 71 69 66 64 62 58 55 52 50 48 46 44 42 41 40 39 37 36 34 33 32 31 30 29 29
Wind_Direction
255 256 256 255 256 259 262 267 270 273 274 277 277 280 283 285 287 288 289 291 292 294 295 296 297 298 299 300 300 301 301 302 302 302 303 303 304 304 304 304 304 304 304 304
254 255 256 256 257 260 263 267 271 273 275 276 277 280 284 286 287 288 290 291 293 294 295 296 298 299 299 300 301 301 302 302 303 303 304 304 304 305 305 305 305 305 305 305
253 255 257 258 260 261 264 267 270 274 277 276 278 281 284 285 287 289 290 292 293 295 296 297 298 299 300 300 301 302 302 303 303 304 304 305 305 305 305 305 306 306 306 306
253 254 256 262 262 263 265 267 271 274 277 279 280 282 284 285 287 289 291 293 294 296 297 298 299 300 300 301 302 302 303 303 304 304 305 305 305 306 306 306 307 307 307 307
255 257 259 261 264 265 266 267 271 275 277 280 281 283 284 286 288 290 291 293 295 296 297 298 299 300 301 301 302 303 303 304 304 305 305 306 306 307 307 307 308 308 308 308
257 260 263 264 264 265 267 269 271 274 277 280 282 284 286 287 289 291 292 294 295 296 298 299 300 301 301 302 303 303 304 305 305 306 306 307 307 307 308 308 309 309 309 308
258 262 265 267 267 267 269 273 274 276 278 281 283 285 287 288 290 292 293 294 295 297 298 299 300 301 302 303 303 304 305 306 307 307 307 308 308 309 309 309 309 309 309 309
259 263 268 269 270 271 273 274 276 278 281 283 285 286 288 289 291 292 294 295 296 298 299 300 301 302 303 303 304 305 306 307 307 308 308 309 309 310 310 310 310 310 310 309
259 264 267 269 271 273 275 276 279 281 283 284 286 287 289 291 292 294 295 296 297 298 299 300 301 303 304 304 305 306 307 308 308 309 309 310 310 311 311 311 310 310 310 310
260 263 266 269 272 274 276 278 280 281 283 286 287 289 290 292 294 295 296 297 298 299 300 301 302 304 305 306 307 308 308 309 309 310 310 311 311 311 311 311 311 310 310 310
262 265 267 270 273 275 277 279 281 283 286 288 289 290 292 293 295 296 297 297 298 300 301 302 303 305 306 307 308 309 309 310 310 311 311 312 312 312 312 312 311 311 311 310
264 265 267 270 273 276 278 280 283 285 287 288 290 291 293 294 295 296 297 298 299 301 302 303 304 305 306 308 309 310 310 311 311 312 312 312 312 312 312 312 311 311 311 311
265 267 269 272 275 278 279 281 283 286 288 289 290 292 294 295 296 297 298 299 300 302 303 304 305 306 307 309 310 310 311 312 312 312 312 312 312 312 312 312 311 310 310 310
266 269 271 273 276 278 280 282 284 286 288 290 291 293 294 295 297 298 299 300 301 302 304 305 306 307 308 310 310 311 312 312 313 313 313 313 313 313 313 312 311 310 309 309
267 269 272 274 276 279 281 283 285 287 289 291 292 293 294 296 297 298 299 301 302 303 305 306 307 308 309 310 311 312 312 313 313 313 313 313 313 313 313 312 312 311 310 310
268 270 273 275 277 280 282 284 286 288 290 291 292 294 295 296 298 299 300 301 303 304 305 307 308 309 310 311 311 312 313 313 313 313 313 313 313 313 312 312 312 312 311 310
270 271 274 276 279 281 283 285 287 289 290 291 293 294 296 297 298 300 301 302 304 305 306 307 309 310 310 311 312 312 313 313 312 312 313 313 313 312 312 312 312 312 311 311
271 273 275 278 280 282 284 286 287 289 290 292 294 296 297 298 299 301 302 303 305 306 307 308 309 310 311 311 312 313 313 312 312 312 312 312 312 312 311 311 311 311 311 310
273 275 277 279 281 283 285 287 288 290 292 294 295 297 298 299 300 302 303 304 306 307 308 309 310 310 311 312 312 312 312 312 312 312 312 311 311 311 311 312 311 311 310 309
275 276 278 280 282 284 286 288 289 291 293 294 296 297 299 300 301 303 304 306 307 308 309 309 310 311 311 312 312 312 312 312 312 312 311 311 311 311 312 312 311 311 310 308
275 277 279 281 283 285 287 289 291 292 294 296 297 299 300 302 303 304 305 306 307 308 309 310 311 311 311 311 311 311 311 311 311 311 311 311 312 312 312 312 312 311 310 309
276 278 280 282 284 286 289 290 292 294 296 297 299 300 302 303 304 305 306 307 308 309 310 310 311 311 311 311 311 311 311 311 311 311 311 311 312 312 312 312 312 311 310 310
278 279 281 283 286 288 290 292 294 296 297 299 300 301 302 304 305 306 307 308 309 309 310 311 311 311 311 311 311 311 311 311 311 311 311 312 312 312 313 313 312 311 311 311
279 281 283 285 287 289 291 293 295 297 298 300 301 302 303 304 306 307 308 309 309 310 311 311 311 311 311 311 311 311 311 311 311 311 311 312 312 312 312 312 312 312 311 311
281 283 285 287 289 291 292 294 296 298 299 301 302 303 304 306 307 308 308 309 310 310 311 311 311 311 311 311 311 311 312 312 311 311 311 312 312 312 312 312 312 312 311 311
283 285 287 288 290 292 294 295 297 298 300 301 302 304 305 306 307 308 309 309 310 310 311 311 311 312 311 311 312 312 312 312 312 312 312 312 312 312 312 311 312 312 311 311
284 286 288 290 292 293 295 296 298 299 301 302 303 304 305 306 307 308 309 309 310 310 311 312 312 312 312 313 313 313 313 313 313 312 312 312 312 312 312 311 311 311 311 311
Height
5752 5752 5753 5754 5755 5755 5754 5754 5753 5754 5754 5754 5750 5748 5746 5745 5743 5740 5737 5734 5731 5727 5724 5719 5715 5710 5705 5700 5694 5688 5682 5676 5670 5663 5656 5649 5641 5633 5625 5617 5608 5600 5591 5582
5744 5745 5744 5746 5748 5748 5747 5746 5745 5745 5746 5745 5741 5739 5738 5736 5733 5731 5728 5725 5721 5717 5713 5709 5704 5699 5694 5688 5682 5676 5670 5663 5656 5649 5642 5634 5626 5618 5610 5601 5592 5583 5574 5564
5737 5737 5736 5738 5741 5740 5739 5739 5738 5737 5738 5736 5733 5731 5729 5727 5724 5721 5718 5715 5711 5707 5702 5698 5693 5687 5682 5676 5670 5663 5657 5650 5643 5635 5628 5619 5611 5602 5594 5585 5575 5566 5556 5545
5728 5729 5728 5735 5733 5732 5731 5731 5730 5729 5728 5726 5725 5722 5720 5718 5714 5711 5708 5704 5700 5696 5691 5686 5681 5675 5669 5663 5657 5650 5643 5636 5628 5621 5613 5604 5595 5586 5577 5567 5558 5547 5537 5526
5720 5720 5721 5726 5725 5723 5722 5723 5723 5720 5719 5717 5715 5713 5711 5708 5705 5701 5697 5693 5689 5684 5679 5674 5668 5663 5657 5651 5644 5637 5629 5622 5614 5605 5597 5588 5579 5569 5559 5550 5540 5529 5518 5506
5712 5711 5713 5719 5717 5714 5714 5715 5714 5712 5710 5708 5706 5704 5702 5698 5694 5690 5686 5682 5677 5672 5667 5662 5656 5650 5644 5637 5630 5623 5615 5607 5598 5589 5580 5571 5562 5552 5542 5531 5521 5510 5499 5487
5704 5703 5704 5709 5707 5706 5707 5707 5704 5702 5700 5698 5696 5694 5691 5687 5683 5679 5675 5670 5665 5660 5655 5649 5643 5637 5630 5623 5616 5608 5600 5592 5583 5573 5564 5554 5544 5534 5523 5513 5502 5491 5480 5469
5695 5695 5699 5698 5697 5697 5696 5695 5693 5692 5690 5688 5686 5682 5679 5675 5671 5667 5663 5658 5653 5648 5642 5636 5629 5623 5617 5609 5602 5594 5585 5577 5567 5557 5547 5536 5526 5515 5504 5492 5481 5470 5459 5449
5688 5690 5690 5688 5687 5686 5685 5685 5683 5681 5680 5677 5674 5671 5667 5663 5659 5655 5650 5646 5640 5635 5629 5622 5615 5609 5602 5594 5586 5578 5570 5560 5550 5540 5530 5518 5507 5496 5485 5472 5460 5449 5438 5428
5679 5680 5679 5678 5677 5676 5675 5674 5672 5670 5668 5666 5662 5659 5655 5651 5647 5642 5638 5633 5627 5621 5615 5609 5601 5594 5587 5579 5571 5562 5553 5544 5534 5523 5513 5501 5489 5477 5464 5452 5440 5429 5418 5408
5669 5670 5669 5669 5667 5666 5665 5663 5661 5659 5657 5653 5650 5647 5643 5639 5634 5629 5624 5619 5613 5608 5601 5595 5587 5579 5571 5563 5555 5546 5537 5527 5516 5506 5494 5483 5472 5459 5445 5434 5419 5407 5397 5387
5660 5660 5659 5659 5658 5656 5654 5652 5650 5648 5645 5641 5638 5634 5630 5626 5621 5616 5611 5605 5600 5594 5587 5580 5572 5564 5556 5547 5538 5529 5520 5510 5499 5488 5476 5464 5453 5443 5430 5415 5403 5389 5377 5367
5649 5649 5649 5648 5647 5645 5643 5641 5639 5636 5633 5629 5626 5622 5618 5613 5608 5603 5598 5592 5586 5579 5572 5565 5557 5549 5540 5531 5522 5512 5501 5491 5480 5469 5457 5445 5432 5421 5412 5403 5388 5375 5362 5352
5639 5638 5638 5637 5635 5634 5631 5629 5627 5624 5621 5617 5613 5609 5605 5600 5595 5590 5584 5578 5572 5565 5558 5550 5542 5533 5524 5515 5505 5494 5483 5472 5461 5449 5437 5425 5413 5401 5389 5380 5372 5363 5352 5340
5628 5628 5627 5625 5624 5622 5620 5617 5615 5612 5608 5605 5601 5597 5592 5588 5582 5576 5570 5564 5557 5550 5543 5535 5526 5517 5507 5498 5488 5477 5466 5454 5442 5431 5419 5406 5395 5383 5372 5362 5353 5345 5338 5328
5617 5616 5615 5614 5612 5610 5608 5605 5603 5600 5596 5592 5588 5584 5579 5574 5569 5563 5556 5549 5543 5535 5527 5519 5510 5501 5491 5480 5470 5459 5448 5435 5422 5411 5400 5388 5377 5366 5356 5346 5338 5330 5322 5314
5606 5605 5604 5602 5600 5598 5596 5594 5591 5587 5584 5580 5576 5571 5566 5561 5555 5549 5542 5535 5527 5519 5511 5502 5493 5483 5473 5461 5451 5440 5429 5417 5405 5393 5381 5370 5360 5350 5340 5332 5323 5315 5308 5299
5595 5594 5592 5591 5589 5587 5584 5582 5578 5575 5571 5567 5563 5558 5552 5547 5541 5535 5528 5520 5512 5504 5494 5484 5475 5465 5454 5443 5432 5421 5409 5398 5387 5375 5365 5354 5344 5335 5326 5317 5309 5302 5295 5288
5583 5582 5581 5579 5577 5575 5572 5569 5566 5562 5558 5554 5549 5544 5538 5532 5526 5519 5512 5504 5496 5488 5479 5468 5458 5447 5436 5424 5412 5401 5390 5379 5369 5358 5348 5339 5330 5321 5312 5304 5296 5289 5282 5275
5572 5571 5569 5567 5565 5563 5560 5557 5553 5549 5545 5540 5535 5530 5524 5518 5511 5504 5496 5488 5478 5469 5461 5450 5440 5429 5417 5406 5394 5383 5372 5361 5352 5342 5333 5324 5315 5307 5299 5291 5283 5276 5270 5264
5561 5559 5558 5555 5553 5550 5547 5544 5540 5536 5531 5526 5521 5515 5509 5502 5495 5487 5479 5472 5462 5451 5442 5431 5420 5409 5398 5387 5376 5365 5354 5344 5335 5326 5318 5309 5302 5294 5286 5279 5272 5265 5260 5254
5549 5547 5545 5543 5540 5537 5534 5530 5526 5522 5517 5511 5506 5500 5493 5487 5479 5471 5462 5452 5444 5433 5423 5412 5401 5389 5378 5368 5357 5347 5338 5328 5319 5311 5303 5296 5288 5281 5275 5268 5261 5255 5250 5245
5537 5535 5533 5530 5527 5524 5520 5516 5512 5507 5502 5496 5490 5483 5477 5469 5461 5453 5446 5436 5424 5414 5404 5393 5381 5370 5360 5350 5340 5331 5322 5313 5305 5297 5290 5283 5276 5270 5264 5258 5252 5246 5241 5236
5524 5522 5520 5517 5514 5510 5507 5502 5497 5492 5487 5480 5474 5466 5459 5452 5444 5434 5424 5415 5405 5395 5384 5373 5363 5352 5342 5333 5324 5315 5307 5299 5291 5284 5278 5271 5265 5259 5253 5248 5242 5237 5232 5227
5511 5508 5506 5503 5500 5496 5492 5487 5482 5477 5471 5465 5457 5449 5441 5432 5424 5416 5407 5397 5386 5376 5366 5356 5345 5335 5326 5317 5309 5301 5293 5285 5278 5272 5266 5261 5255 5249 5244 5238 5233 5228 5224 5219
5497 5495 5492 5488 5485 5481 5477 5472 5467 5461 5454 5448 5441 5432 5424 5414 5405 5396 5387 5378 5368 5358 5348 5339 5330 5320 5311 5303 5295 5288 5280 5273 5267 5261 5255 5250 5245 5239 5235 5230 5225 5220 5216 5211
5483 5480 5477 5473 5469 5465 5460 5455 5450 5443 5437 5430 5423 5415 5406 5397 5388 5378 5369 5360 5351 5341 5332 5323 5314 5306 5298 5291 5283 5276 5269 5262 5256 5251 5245 5240 5235 5230 5226 5221 5217 5212 5208 5203